Flag for Israel Weather past 2 weeks in Herzliya, Israel

Now
84 °F

Passing clouds.


Feels Like: 98 °F
Forecast: 82 / 92 °F
Wind: 8 mph from Southwest

Location: Dov Airport

Current Time: Aug 3, 2015 at 3:31:25 AM

Latest Report: Aug 2, 2015 at 11:50 PM


Visibility: 4 mi

Pressure: 29.74 "Hg

Humidity: 89%

Dew point: 81 °F

Location of HerzliyaLocation

Historic Weather in Herzliya — Graph

°F

Herzliya temperature yesterday

Maximum temperature yesterday: 90 °F (at 2:50 PM)
Minimum temperature yesterday: 79 °F (at 5:50 AM)
Average temperature yesterday: 85 °F

Past Weeks' High & Low Weather Summary

 TemperatureHumidityPressure
High90 °F (Aug 2, 2:50 PM)94% (Aug 2, 5:50 AM)29.83 "Hg (Aug 2, 5:50 AM)
Low73 °F (Jul 30, 5:50 AM)52% (Jul 23, 2:50 PM)29.65 "Hg (Jul 20, 5:50 AM)
Average82 °F73%29.71 "Hg
* Reported Jul 19 4:50 AM — Aug 2 11:50 PM, Herzliya, Weather by CustomWeather, © 2015

Note: Actual official high and low records may vary slightly from our data, if they occured in-between our weather recording intervals... More about our weather records

Advertising

Herzliya weather history for previous 24 hours

 ConditionsComfort  
Time TempWeatherWind HumidityBarometerVisibility
11:50 PM
Sun, Aug 2
84 °FPassing clouds.8 mph89%29.74 "Hg4 mi
10:50 PM84 °FPassing clouds.6 mph84%29.74 "Hg6 mi
9:50 PM84 °FClear.8 mph84%29.71 "Hg10 mi
8:50 PM84 °FClear.9 mph89%29.71 "Hg10 mi
7:50 PM86 °FSunny.10 mph79%29.68 "Hg10 mi
6:50 PM86 °FSunny.14 mph79%29.65 "Hg10 mi
5:50 PM88 °FSunny.16 mph70%29.65 "Hg10 mi
4:50 PM88 °FSunny.16 mph75%29.68 "Hg10 mi
3:50 PM88 °FSunny.18 mph75%29.68 "Hg10 mi
2:50 PM90 °FSunny.16 mph71%29.71 "Hg10 mi
1:50 PM88 °FSunny.16 mph75%29.71 "Hg10 mi
12:50 PM88 °FSunny.15 mph75%29.71 "Hg10 mi
11:50 AM88 °FClear.14 mph75%29.74 "Hg6 mi
10:50 AM88 °FClear.8 mph70%29.74 "Hg6 mi
9:50 AM84 °FClear.5 mph79%29.74 "Hg5 mi
8:50 AM84 °FScattered clouds.3 mph79%29.74 "Hg4 mi
7:50 AM82 °FScattered clouds.2 mph84%29.74 "Hg4 mi
6:50 AM81 °FClear.5 mph84%29.71 "Hg5 mi
5:50 AM79 °FClear.3 mph94%29.71 "Hg4 mi
4:50 AM81 °FPassing clouds.8 mph89%29.68 "Hg4 mi
Weather by CustomWeather, © 2015

See weather overviewHow to use our weather pages